Terminal Aerodrome Forecast
Issued by NWS Detroit/Pontiac, MI

Home | Current Version | Previous Version | Text Only | Print | Product List | Glossary On
Versions: 1 2 3 4 5 6 7 8 9 10 11 12 13 14 15 16 17 18 19 20 21 22 23 24 25 26 27 28 29 30
000
FTUS43 KDTX 170527
TAFFNT
TAF
KFNT 170527Z 1706/1806 07005KT P6SM OVC025
     FM171700 06005KT P6SM OVC040
     FM172300 VRB03KT P6SM BKN045 OVC090=

USA.gov is the U.S. government's official web portal to all federal, state and local government web resources and services.